| time (UTC) | temp C | wind direction | speed KPH | gust KPH | rain 1hr cm | rain 24hr cm | rain mn cm | humidity % | barometer mb |
| 20260510132438 | -17 | 258 | 4.8 | 9.7 | 0.00 | 0.00 | 0.00 | 100 | |
| 20260510130813 | -17 | 253 | 4.8 | 8.0 | 0.00 | 0.00 | 0.00 | 100 | |
| 20260510124912 | -17 | 238 | 1.6 | 6.4 | 0.00 | 0.00 | 0.00 | 100 | |
| 20260510123237 | -17 | 235 | 1.6 | 6.4 | 0.00 | 0.00 | 0.00 | 100 | |
| 20260510121633 | -17 | 240 | 3.2 | 8.0 | 0.00 | 0.00 | 0.00 | 100 | |
| 20260510115958 | -17 | 245 | 1.6 | 6.4 | 0.00 | 0.00 | 0.00 | 100 | |
| 20260510114226 | -17 | 236 | 3.2 | 6.4 | 0.00 | 0.00 | 0.00 | 100 | |
| 20260510112433 | -17 | 246 | 1.6 | 4.8 | 0.00 | 0.00 | 0.00 | 100 | |
| 20260510110833 | -17 | 251 | 1.6 | 4.8 | 0.00 | 0.00 | 0.00 | 100 | |
| 20260510105013 | -17 | 240 | 3.2 | 6.4 | 0.00 | 0.00 | 0.00 | 100 | |
| 20260510103258 | -17 | 243 | 3.2 | 6.4 | 0.00 | 0.00 | 0.00 | 100 | |
| 20260510101658 | -17 | 240 | 3.2 | 6.4 | 0.00 | 0.00 | 0.00 | 100 | |
| 20260510100017 | -17 | 240 | 4.8 | 6.4 | 0.00 | 0.00 | 0.00 | 100 | |
| 20260510094413 | -17 | 239 | 3.2 | 6.4 | 0.00 | 0.00 | 0.00 | 100 | |
| 20260510092538 | -17 | 238 | 4.8 | 6.4 | 0.00 | 0.00 | 0.00 | 100 | |
| 20260510090846 | -17 | 245 | 3.2 | 6.4 | 0.00 | 0.00 | 0.00 | 100 | |
| 20260510084903 | -17 | 243 | 3.2 | 8.0 | 0.00 | 0.00 | 0.00 | 100 | |
| 20260510083053 | -17 | 244 | 1.6 | 4.8 | 0.00 | 0.00 | 0.00 | 100 | |
| 20260510081316 | -17 | 244 | 1.6 | 6.4 | 0.00 | 0.00 | 0.00 | 100 | |
| 20260510075426 | -17 | 237 | 3.2 | 6.4 | 0.00 | 0.00 | 0.00 | 100 | |
| 20260510073653 | -17 | 239 | 3.2 | 6.4 | 0.00 | 0.00 | 0.00 | 100 | |
| 20260510071933 | -17 | 239 | 3.2 | 6.4 | 0.00 | 0.00 | 0.00 | 100 | |
| 20260510070158 | -17 | 239 | 3.2 | 6.4 | 0.00 | 0.00 | 0.00 | 100 | |
| 20260510064433 | -17 | 237 | 3.2 | 9.7 | 0.00 | 0.00 | 0.00 | 100 | |
| 20260510062613 | -17 | 239 | 1.6 | 4.8 | 0.00 | 0.00 | 0.00 | 100 | |
| 20260510060846 | -17 | 242 | 1.6 | 4.8 | 0.00 | 0.00 | 0.00 | 100 | |
| 20260510055058 | -17 | 245 | 1.6 | 6.4 | 0.00 | 0.00 | 0.00 | 100 | |
| 20260510053106 | -17 | 244 | 1.6 | 4.8 | 0.00 | 0.00 | 0.00 | 100 | |
| 20260510051228 | -17 | 243 | 1.6 | 6.4 | 0.00 | 0.00 | 0.00 | 100 | |
| 20260510045528 | -17 | 242 | 1.6 | 4.8 | 0.00 | 0.00 | 0.00 | 100 | |
| 20260510043928 | -17 | 270 | 1.6 | 4.8 | 0.00 | 0.00 | 0.00 | 100 | |
| 20260510042058 | -17 | 270 | 1.6 | 4.8 | 0.00 | 0.00 | 0.00 | 100 | |
| 20260510040303 | -17 | 252 | 1.6 | 4.8 | 0.00 | 0.00 | 0.00 | 100 | |
| 20260510034313 | -17 | 303 | 1.6 | 6.4 | 0.00 | 0.00 | 0.00 | 100 | |
| 20260510032703 | -17 | 302 | 0.0 | 4.8 | 0.00 | 0.00 | 0.00 | 100 | |
| 20260510031043 | -17 | 290 | 1.6 | 4.8 | 0.00 | 0.00 | 0.00 | 100 | |
| 20260510025058 | -17 | 270 | 1.6 | 6.4 | 0.00 | 0.00 | 0.00 | 100 | |
| 20260510023313 | -17 | 315 | 1.6 | 11.3 | 0.00 | 0.00 | 0.00 | 100 | |
| 20260510021436 | -17 | 251 | 1.6 | 4.8 | 0.00 | 0.00 | 0.00 | 100 | |
| 20260510021403 | -17 | 251 | 1.6 | 4.8 | 0.00 | 0.00 | 0.00 | 100 | |
| 20260510015748 | -17 | 237 | 1.6 | 6.4 | 0.00 | 0.00 | 0.00 | 100 | |
| 20260510013953 | -17 | 308 | 0.0 | 4.8 | 0.00 | 0.00 | 0.00 | 100 | |
| 20260510012316 | -17 | 270 | 1.6 | 4.8 | 0.00 | 0.00 | 0.00 | 100 | |
| 20260510010613 | -17 | 251 | 1.6 | 8.0 | 0.00 | 0.00 | 0.00 | 100 | |
| 20260510004923 | -17 | 240 | 1.6 | 6.4 | 0.00 | 0.00 | 0.00 | 100 | |
| 20260510002958 | -17 | 243 | 1.6 | 6.4 | 0.00 | 0.00 | 0.00 | 100 | |
| 20260510001430 | -17 | 243 | 1.6 | 6.4 | 0.00 | 0.00 | 0.00 | 100 | |
| 20260510001343 | -17 | 243 | 1.6 | 6.4 | 0.00 | 0.00 | 0.00 | 100 | |
| 20260509235738 | -17 | 240 | 1.6 | 8.0 | 0.00 | 0.00 | 0.00 | 100 | |
| 20260509234033 | -17 | 241 | 3.2 | 6.4 | 0.00 | 0.00 | 0.00 | 100 | |
| 20260509232423 | -17 | 241 | 1.6 | 6.4 | 0.00 | 0.00 | 0.00 | 100 | |
| 20260509230513 | -17 | 233 | 3.2 | 8.0 | 0.00 | 0.00 | 0.00 | 100 | |
| 20260509224558 | -17 | 234 | 3.2 | 9.7 | 0.00 | 0.00 | 0.00 | 100 | |
| 20260509222738 | -17 | 233 | 4.8 | 8.0 | 0.00 | 0.00 | 0.00 | 100 | |
| 20260509221053 | -17 | 236 | 3.2 | 12.9 | 0.00 | 0.00 | 0.00 | 100 | |
| 20260509215103 | -17 | 232 | 1.6 | 6.4 | 0.00 | 0.00 | 0.00 | 100 | |
| 20260509213143 | -17 | 228 | 3.2 | 9.7 | 0.00 | 0.00 | 0.00 | 100 | |
| 20260509211253 | -17 | 238 | 3.2 | 6.4 | 0.00 | 0.00 | 0.00 | 100 | |
| 20260509205541 | -17 | 236 | 1.6 | 6.4 | 0.00 | 0.00 | 0.00 | 100 | |
| 20260509203637 | -17 | 233 | 4.8 | 11.3 | 0.00 | 0.00 | 0.00 | 100 | |
| 20260509201903 | -17 | 232 | 4.8 | 17.7 | 0.00 | 0.00 | 0.00 | 100 | |
| 20260509195932 | -17 | 234 | 1.6 | 9.7 | 0.00 | 0.00 | 0.00 | 100 | |
| 20260509194355 | -17 | 233 | 1.6 | 9.7 | 0.00 | 0.00 | 0.00 | 100 | |
| 20260509194316 | -17 | 233 | 1.6 | 9.7 | 0.00 | 0.00 | 0.00 | 100 | |
| 20260509192428 | -17 | 233 | 3.2 | 6.4 | 0.00 | 0.00 | 0.00 | 100 | |
| 20260509190833 | -17 | 235 | 3.2 | 6.4 | 0.00 | 0.00 | 0.00 | 100 | |
| 20260509185038 | -17 | 241 | 1.6 | 6.4 | 0.00 | 0.00 | 0.00 | 100 | |
| 20260509183223 | -17 | 239 | 1.6 | 6.4 | 0.00 | 0.00 | 0.00 | 100 | |
| 20260509181354 | -17 | 251 | 1.6 | 4.8 | 0.00 | 0.00 | 0.00 | 100 | |
| 20260509175643 | -17 | 225 | 3.2 | 8.0 | 0.00 | 0.00 | 0.00 | 100 | |
| 20260509173718 | -17 | 243 | 1.6 | 6.4 | 0.00 | 0.00 | 0.00 | 100 | |
| 20260509172018 | -17 | 233 | 3.2 | 8.0 | 0.00 | 0.00 | 0.00 | 100 | |
| 20260509170031 | -17 | 234 | 3.2 | 6.4 | 0.00 | 0.00 | 0.00 | 100 | |
| 20260509164203 | -17 | 240 | 1.6 | 8.0 | 0.00 | 0.00 | 0.00 | 100 | |
| 20260509162423 | -17 | 244 | 1.6 | 6.4 | 0.00 | 0.00 | 0.00 | 100 | |
| 20260509162336 | -17 | 244 | 1.6 | 6.4 | 0.00 | 0.00 | 0.00 | 100 | |
| 20260509160533 | -17 | 237 | 3.2 | 6.4 | 0.00 | 0.00 | 0.00 | 100 | |
| 20260509154706 | -17 | 241 | 1.6 | 4.8 | 0.00 | 0.00 | 0.00 | 100 | |
| 20260509152918 | -17 | 241 | 3.2 | 6.4 | 0.00 | 0.00 | 0.00 | 100 | |
| 20260509151213 | -17 | 252 | 1.6 | 6.4 | 0.00 | 0.00 | 0.00 | 100 | |
| 20260509145406 | -17 | 288 | 1.6 | 6.4 | 0.00 | 0.00 | 0.00 | 100 | |
| 20260509143623 | -17 | 270 | 0.0 | 4.8 | 0.00 | 0.00 | 0.00 | 100 | |
| 20260509141924 | -17 | 298 | 1.6 | 4.8 | 0.00 | 0.00 | 0.00 | 100 | |
| 20260509140248 | -17 | 244 | 1.6 | 4.8 | 0.00 | 0.00 | 0.00 | 100 | |
| 20260509134506 | -17 | 248 | 4.8 | 9.7 | 0.00 | 0.00 | 0.00 | 100 |